Location: Cheyres
(46.8153°N, 6.7877°E)
Time: 02:59:03
(UTC+00:00)

Cosmos 1354 Rocket - Pass Details

Date: 11 May 2021
Orbit: 764 x 784 km, 74.0° (Epoch: 18 June)

Event Time Altitude Azimuth Distance (km) Brightness Sun altitude
Rises 19:34:07 0° 185° (S) 3,214 6.9 -6.4°
Reaches altitude 10° 19:36:31 10° 180° (S) 2,293 6.1 -6.7°
Maximum altitude 19:41:32 51° 105° (ESE) 958 4.2 -7.4°
Drops below altitude 10° 19:46:37 10° 31° (NNE) 2,317 6.6 -8.1°
Sets 19:49:03 0° 27° (NNE) 3,251 7.4 -8.4°
